Home > Time Zones > World Clock > Weather > Italy > Turin > Past weeks

Flag Weather past 2 weeks in Turin, Italy

Now
45 °F

Clear.


Feels Like: 45 °F
Forecast: 47 / 56 °F
Wind: No wind

Location: Torino / Bric Della Croce

Current Time: Nov 21, 2014 at 4:26:34 AM

Latest Report: Nov 21, 2014 at 3:55 AM


Visibility: 10 mi

Pressure: 30.15 "Hg

Humidity: 71%

Dew point: 36 °F

Location of TurinLocation

Historic Weather in Turin — Graph

°F

Turin temperature yesterday

Maximum temperature yesterday: 50 °F (at 1:55 PM)
Minimum temperature yesterday: 46 °F (at 12:55 AM)
Average temperature yesterday: 47 °F

Past Weeks' High & Low Weather Summary

 TemperatureHumidityPressure
High57 °F (Nov 8, 1:55 PM)100% (Nov 6, 2:55 AM)30.24 "Hg (Nov 6, 2:55 AM)
Low41 °F (Nov 17, 6:55 PM)32% (Nov 19, 6:55 PM)29.47 "Hg (Nov 15, 8:55 PM)
Average48 °F87%29.83 "Hg
* Reported Nov 6 2:55 AM — Nov 21 2:55 AM, Turin, Weather by CustomWeather, © 2014

Note: Actual official high and low records may vary slightly from our data, if they occured in-between our weather recording intervals... More about our weather records

Advertising

Turin weather history for previous 24 hours

 ConditionsComfort  
Time TempWeatherWind HumidityBarometerVisibility
2:55 AM
Nov 21
45 °FClear.No wind66%30.18 "Hg10 mi
1:55 AM45 °FClear.2 mph66%30.18 "Hg10 mi
12:55 AM46 °FClear.No wind66%30.21 "Hg10 mi
11:55 PM
Nov 20
48 °FClear.No wind54%30.21 "Hg10 mi
10:55 PM46 °FClear.No wind62%30.21 "Hg10 mi
9:55 PM46 °FClear.No wind62%30.21 "Hg10 mi
8:55 PM46 °FClear.No wind62%30.21 "Hg10 mi
7:55 PM46 °FClear.No wind66%30.21 "Hg10 mi
6:55 PM46 °FClear.No wind62%30.18 "Hg10 mi
5:55 PM46 °FClear.2 mph57%30.18 "Hg10 mi
4:55 PM48 °FClear.5 mph71%30.18 "Hg10 mi
3:55 PM48 °FSunny.2 mph82%30.18 "Hg10 mi
2:55 PM50 °FSunny.No wind71%30.18 "Hg10 mi
1:55 PM50 °FSunny.No wind71%30.18 "Hg10 mi
12:55 PM48 °FSunny.No wind71%30.21 "Hg10 mi
11:55 AM48 °FSunny.No wind66%30.21 "Hg10 mi
10:55 AM48 °FSunny.No wind54%30.24 "Hg10 mi
9:55 AM46 °FSunny.No wind50%30.21 "Hg10 mi
8:55 AM46 °FSunny.No wind57%30.21 "Hg10 mi
7:55 AM46 °FSunny.2 mph53%30.21 "Hg10 mi
6:55 AM46 °FClear.2 mph57%30.18 "Hg10 mi
5:55 AM46 °FClear.3 mph57%30.18 "Hg10 mi
4:55 AM46 °FClear.3 mph46%30.15 "Hg10 mi
Weather by CustomWeather, © 2014

See weather overviewHow to use our weather pages